Danville, VA

10:57 AM EST on January 16, 2018 (GMT -0500)
Danville Regional

Weather History for KDAN - May, 2013

Change the Weather History Date:

Thursday, May 2, 2013

  Actual Average Record
Temperature  
Mean Temperature 59 °F 63 °F  
Max Temperature 65 °F 75 °F 93 °F (1951)
Min Temperature 52 °F 51 °F 30 °F (1963)
Degree Days  
Heating Degree Days 6 4  
Month to date heating degree days 8 8  
Since 1 July heating degree days 3677 3751  
Cooling Degree Days 0 2  
Month to date cooling degree days 0 4  
Year to date cooling degree days 48 38  
Growing Degree Days 10 (Base 50)    
Moisture  
Dew Point 50 °F    
Average Humidity 73    
Maximum Humidity 93    
Minimum Humidity 53    
Precipitation  
Precipitation 0.00 in 0.10 in 3.33 in (1989)
Month to date precipitation 0.00 0.19  
Year to date precipitation 15.40 14.19  
Snow  
Snow 0.00 in - - ()
Month to date snowfall 0.0  
Since 1 July snowfall 1.7  
Snow Depth 0.00 in    
Sea Level Pressure  
Sea Level Pressure 30.32 in    
Wind  
Wind Speed 6 mph (NE)    
Max Wind Speed 13 mph    
Max Gust Speed 17 mph    
Visibility 10 miles    
Events      
T = Trace of Precipitation, MM = Missing Value Source: NWS Daily Summary

Daily Weather History Graph

Daily Weather History Graph

Search for Another Location

Airport or City:

Trip Planner

Search our weather history database for the weather conditions in past years. The results will help you decide how hot, cold, wet, or windy it might be!

Date:

Astronomy

May. 02, 2013 Rise Set
Actual Time 6:22 AM EDT 8:06 PM EDT
Civil Twilight 5:54 AM EDT 8:34 PM EDT
Nautical Twilight 5:21 AM EDT 9:08 PM EDT
Astronomical Twilight 4:45 AM EDT 9:44 PM EDT
Moon 1:56 AM EDT (5/2) 1:05 PM EDT (5/2)
Length of Visible Light 14h 39m
Length of Day
13h 44m
Waning Gibbous, 48% of the Moon is Illuminated
May 2
Waning Gibbous
May 9
New
May 18
First Quarter
May 25
Full
May 31
Last Quarter

Hourly Weather History & Observations

Time (EDT) Temp. Dew Point Humidity Pressure Visibility Wind Dir Wind Speed Gust Speed Precip Events Conditions
12:53 AM 59.0 °F 42.1 °F 53% 30.33 in 10.0 mi ENE 8.1 mph - N/A   Overcast
1:53 AM 57.9 °F 41.0 °F 53% 30.33 in 10.0 mi ENE 9.2 mph - N/A   Overcast
2:53 AM 57.9 °F 43.0 °F 58% 30.32 in 10.0 mi ENE 5.8 mph - N/A   Overcast
3:53 AM 57.9 °F 43.0 °F 58% 30.31 in 10.0 mi NE 8.1 mph - N/A   Overcast
4:53 AM 57.0 °F 44.1 °F 62% 30.30 in 10.0 mi NE 5.8 mph - N/A   Overcast
5:53 AM 57.0 °F 45.0 °F 64% 30.30 in 10.0 mi NE 10.4 mph - N/A   Overcast
6:53 AM 55.9 °F 45.0 °F 67% 30.32 in 10.0 mi ENE 6.9 mph - N/A   Overcast
7:53 AM 55.9 °F 46.9 °F 72% 30.33 in 10.0 mi NE 10.4 mph - N/A   Overcast
8:22 AM 55.4 °F 48.2 °F 77% 30.35 in 10.0 mi NE 8.1 mph - N/A   Overcast
8:53 AM 55.9 °F 48.9 °F 77% 30.34 in 10.0 mi NE 8.1 mph - N/A   Overcast
9:53 AM 57.9 °F 51.1 °F 78% 30.34 in 10.0 mi NE 8.1 mph - N/A   Overcast
10:53 AM 59.0 °F 52.0 °F 78% 30.35 in 10.0 mi NE 10.4 mph - N/A   Overcast
11:53 AM 59.0 °F 52.0 °F 78% 30.35 in 10.0 mi ENE 8.1 mph - N/A   Overcast
12:53 PM 59.0 °F 52.0 °F 78% 30.35 in 10.0 mi NE 10.4 mph - N/A   Overcast
1:06 PM 60.8 °F 51.8 °F 72% 30.37 in 10.0 mi ENE 6.9 mph - N/A   Overcast
1:53 PM 60.1 °F 52.0 °F 75% 30.35 in 10.0 mi NE 8.1 mph - N/A   Overcast
2:00 PM 60.8 °F 53.6 °F 77% 30.36 in 10.0 mi ENE 8.1 mph - N/A   Overcast
2:21 PM 60.8 °F 51.8 °F 72% 30.36 in 10.0 mi NE 9.2 mph - N/A   Overcast
2:53 PM 61.0 °F 52.0 °F 72% 30.34 in 10.0 mi ENE 8.1 mph - N/A   Overcast
3:53 PM 62.1 °F 52.0 °F 70% 30.31 in 10.0 mi Variable 3.5 mph - N/A   Overcast
4:53 PM 63.0 °F 52.0 °F 67% 30.29 in 10.0 mi ENE 3.5 mph - N/A   Overcast
5:53 PM 64.0 °F 52.0 °F 65% 30.27 in 10.0 mi Variable 3.5 mph - N/A   Mostly Cloudy
6:53 PM 63.0 °F 53.1 °F 70% 30.27 in 10.0 mi Variable 3.5 mph - N/A   Overcast
7:53 PM 59.0 °F 54.0 °F 83% 30.27 in 10.0 mi Calm Calm - N/A   Clear
8:53 PM 55.0 °F 52.0 °F 89% 30.27 in 10.0 mi Calm Calm - N/A   Mostly Cloudy
9:53 PM 57.0 °F 54.0 °F 89% 30.28 in 10.0 mi Calm Calm - N/A   Overcast
10:53 PM 55.9 °F 53.1 °F 90% 30.28 in 10.0 mi Calm Calm - N/A   Overcast
11:53 PM 54.0 °F 51.1 °F 90% 30.27 in 10.0 mi Calm Calm - N/A   Mostly Cloudy